Weather History for CXWB - March, 2013

Change the Weather History Date:

Monday, March 11, 2013

  Actual Average Record
Temperature  
Mean Temperature -24 °F -  
Max Temperature -11 °F - - ()
Min Temperature -38 °F - - ()
Degree Days  
Heating Degree Days 90    
Moisture  
Dew Point -33 °F    
Average Humidity 59    
Maximum Humidity 74    
Minimum Humidity 25    
Precipitation  
Precipitation 0.00 in - - ()
Sea Level Pressure  
Sea Level Pressure 30.21 in    
Wind  
Wind Speed 4 mph ()    
Max Wind Speed 17 mph    
Max Gust Speed -    
T = Trace of Precipitation, MM = Missing Value Source: Averaged Metar Reports

Daily Weather History Graph

Daily Weather History Graph

Search for Another Location

Airport or City:

Trip Planner

Search our weather history database for the weather conditions in past years. The results will help you decide how hot, cold, wet, or windy it might be!

Date:

Astronomy

Mar. 11, 2013 Rise Set
Actual Time 6:31 AM MDT 5:45 PM MDT
Civil Twilight 5:40 AM MDT 6:36 PM MDT
Nautical Twilight 4:40 AM MDT 7:36 PM MDT
Astronomical Twilight 3:35 AM MDT 8:43 PM MDT
Moon 5:55 AM MDT (3/11) 6:20 PM MDT (3/11)
Length of Visible Light 12h 55m
Length of Day
11h 14m
Waning Crescent, 0% of the Moon is Illuminated
Mar 11
Waning Crescent
Mar 11
New
Mar 19
First Quarter
Mar 27
Full
Apr 2
Last Quarter

Hourly Weather History & Observations

Time (MDT) Temp. Windchill Dew Point Humidity Pressure Visibility Wind Dir Wind Speed Gust Speed Precip Events Conditions
12:00 AM -33 °F - -41 °F 47% 30.25 in - NE 6.9 mph - -  
12:00 AM -33.2 °F -52.9 °F -40.9 °F 66% 30.25 in - NE 6.9 mph - N/A   Unknown
1:00 AM -36.8 °F - -44.0 °F 67% 30.25 in - NNE 1.2 mph - N/A   Unknown
2:00 AM -33.9 °F -46.6 °F -41.1 °F 68% 30.25 in - SE 3.5 mph - N/A   Unknown
3:00 AM -34.6 °F -47.4 °F -41.6 °F 68% 30.25 in - SE 3.5 mph - N/A   Unknown
4:00 AM -35.9 °F -48.8 °F -43.8 °F 65% 30.25 in - East 3.5 mph - N/A   Unknown
5:00 AM -35.9 °F -54.1 °F -44.0 °F 64% 30.25 in - NE 5.8 mph - N/A   Unknown
6:00 AM -36 °F - -43 °F 49% 30.25 in - SE 2.3 mph - -  
6:00 AM -35.5 °F - -43.2 °F 66% 30.25 in - SE 2.3 mph - N/A   Unknown
7:00 AM -33.3 °F - -40.9 °F 67% 30.25 in - SSE 1.2 mph - N/A   Unknown
8:00 AM -30.6 °F - -40.0 °F 61% 30.23 in - SE 2.3 mph - N/A   Unknown
9:00 AM -23.6 °F -34.8 °F -34.1 °F 58% 30.22 in - East 3.5 mph - N/A   Unknown
10:00 AM -22.2 °F - -35.7 °F 50% 30.23 in - East 2.3 mph - N/A   Unknown
11:00 AM -22.5 °F - -38.4 °F 44% 30.22 in - Calm Calm - N/A   Unknown
12:00 PM -16 °F - -32 °F 25% 30.22 in - Calm Calm - -  
12:00 PM -15.9 °F - -32.3 °F 44% 30.22 in - Calm Calm - N/A   Unknown
1:00 PM -14.6 °F - -30.5 °F 45% 30.21 in - NNW 1.2 mph - N/A   Unknown
2:00 PM -14.3 °F - -30.3 °F 45% 30.20 in - Calm Calm - N/A   Unknown
3:00 PM -15.2 °F - -29.4 °F 49% 30.19 in - North 1.2 mph - N/A   Unknown
4:00 PM -17.3 °F - -28.3 °F 57% 30.18 in - ESE 2.3 mph - N/A   Unknown
5:00 PM -16.8 °F -34.6 °F -23.8 °F 70% 30.17 in - SSE 8.1 mph - N/A   Unknown
6:00 PM -15 °F - -23 °F 54% 30.16 in - SSE 9.2 mph - -  
6:00 PM -15.3 °F -34.1 °F -22.5 °F 70% 30.16 in - SSE 9.2 mph - N/A   Unknown
7:00 PM -14.1 °F -34.7 °F -21.1 °F 71% 30.15 in - SSE 11.5 mph - N/A   Unknown
8:00 PM -13.7 °F -36.9 °F -20.9 °F 70% 30.15 in - SSE 15.0 mph - N/A   Unknown
9:00 PM -13.7 °F -33.3 °F -20.6 °F 71% 30.14 in - SE 10.4 mph - N/A   Unknown
10:00 PM -12.8 °F -37.3 °F -18.9 °F 74% 30.12 in - SE 17.3 mph - N/A   Unknown
11:00 PM -12.6 °F -34.7 °F -18.9 °F 73% 30.11 in - SE 13.8 mph - N/A   Unknown